Weather History for Peachtree City, GA

Change the Weather History Date:

Saturday, December 1, 2012

  Actual Average Record
Temperature  
Mean Temperature 53 °F 48 °F  
Max Temperature 69 °F 60 °F 73 °F (1998)
Min Temperature 37 °F 36 °F 19 °F (1999)
Degree Days  
Heating Degree Days 12 17  
Month to date heating degree days 17  
Since 1 July heating degree days 559  
Cooling Degree Days 0 0  
Month to date cooling degree days 0  
Year to date cooling degree days 1653  
Growing Degree Days 3 (Base 50)    
Moisture  
Dew Point 43 °F    
Average Humidity 78    
Maximum Humidity 97    
Minimum Humidity 40    
Precipitation  
Precipitation 0.00 in 0.17 in 1.66 in (1996)
Month to date precipitation 0.17  
Snow  
Snow 0.00 in - - ()
Month to date snowfall  
Since 1 July snowfall  
Snow Depth -    
Sea Level Pressure  
Sea Level Pressure 30.33 in    
Wind  
Wind Speed 1 mph (SE)    
Max Wind Speed 6 mph    
Max Gust Speed -    
Visibility 8 miles    
Events      
T = Trace of Precipitation, MM = Missing Value Source: NWS Daily Summary

Daily Weather History Graph

Daily Weather History Graph

Search for Another Location

Airport:

Trip Planner

Search our weather history database for the weather conditions in past years. The results will help you decide how hot, cold, wet, or windy it might be!

Date:

Astronomy

Dec. 01, 2012 Rise Set
Actual Time 7:24 AM EST 5:30 PM EST
Civil Twilight 6:57 AM EST 5:57 PM EST
Nautical Twilight 6:26 AM EST 6:28 PM EST
Astronomical Twilight 5:56 AM EST 6:58 PM EST
Moon 8:17 PM EST (12/1) 9:38 AM EST (12/1)
Length of Visible Light 11h 00m
Length of Day
10h 06m
Waning Gibbous, 92% of the Moon is Illuminated
Dec 1
Waning Gibbous
Dec 6
Last Quarter
Dec 13
New
Dec 20
First Quarter
Dec 28
Full

Hourly Weather History & Observations

Time (EST) Temp. Dew Point Humidity Pressure Visibility Wind Dir Wind Speed Gust Speed Precip Events Conditions
12:53 AM 41.0 °F 39.0 °F 93% 30.31 in 7.0 mi Calm Calm - N/A   Partly Cloudy
1:53 AM 39.0 °F 37.9 °F 96% 30.31 in 7.0 mi Calm Calm - N/A   Clear
2:53 AM 39.0 °F 37.0 °F 93% 30.32 in 7.0 mi Calm Calm - N/A   Scattered Clouds
3:53 AM 37.9 °F 37.0 °F 97% 30.32 in 6.0 mi Calm Calm - N/A   Scattered Clouds
4:53 AM 37.0 °F 35.1 °F 93% 30.32 in 6.0 mi Calm Calm - N/A   Clear
5:53 AM 37.0 °F 35.1 °F 93% 30.33 in 6.0 mi Calm Calm - N/A   Partly Cloudy
6:53 AM 37.0 °F 35.1 °F 93% 30.35 in 6.0 mi Calm Calm - N/A   Mostly Cloudy
7:53 AM 37.0 °F 36.0 °F 96% 30.37 in 5.0 mi Calm Calm - N/A   Scattered Clouds
8:53 AM 42.1 °F 39.9 °F 92% 30.37 in 5.0 mi Calm Calm - N/A   Clear
9:53 AM 50.0 °F 45.0 °F 83% 30.38 in 7.0 mi Calm Calm - N/A   Clear
10:53 AM 59.0 °F 50.0 °F 72% 30.38 in 10.0 mi Variable 3.5 mph - N/A   Clear
11:53 AM 64.9 °F 52.0 °F 63% 30.36 in 10.0 mi Calm Calm - N/A   Partly Cloudy
12:53 PM 66.0 °F 46.9 °F 50% 30.32 in 10.0 mi SE 5.8 mph - N/A   Mostly Cloudy
1:53 PM 66.9 °F 46.9 °F 49% 30.31 in 10.0 mi SSE 4.6 mph - N/A   Mostly Cloudy
2:53 PM 69.1 °F 44.1 °F 40% 30.30 in 10.0 mi Variable 4.6 mph - N/A   Partly Cloudy
3:53 PM 66.9 °F 44.1 °F 44% 30.30 in 10.0 mi SSE 4.6 mph - N/A   Overcast
4:53 PM 66.9 °F 45.0 °F 45% 30.30 in 10.0 mi SE 4.6 mph - N/A   Overcast
5:53 PM 61.0 °F 46.9 °F 60% 30.30 in 10.0 mi Calm Calm - N/A   Overcast
6:53 PM 55.0 °F 48.0 °F 77% 30.32 in 10.0 mi Calm Calm - N/A   Scattered Clouds
7:53 PM 51.1 °F 46.0 °F 83% 30.32 in 10.0 mi Calm Calm - N/A   Mostly Cloudy
8:53 PM 48.9 °F 45.0 °F 86% 30.33 in 10.0 mi Calm Calm - N/A   Scattered Clouds
9:53 PM 46.9 °F 44.1 °F 90% 30.33 in 10.0 mi Calm Calm - N/A   Scattered Clouds
10:53 PM 46.0 °F 43.0 °F 89% 30.32 in 10.0 mi Calm Calm - N/A   Scattered Clouds
11:53 PM 45.0 °F 43.0 °F 93% 30.33 in 10.0 mi Calm Calm - N/A   Scattered Clouds